,,Stat6,,Stat2,,Stat8,,Stat9,,Stat10,,Wind1,,Wind1,
time,status,PA1M_AVG,status,PR1M_SUM,status,RH1M_AVG,status,SR1M_AVG,status,TA1M_AVG,status,W1dAve1m,status,W1sAve1m,
2004-05-17, 00:00:01,VALID,918.274,VALID,0,VALID,92.5804,VALID,0,VALID,18.2176,VALID,104,VALID,0.866122,
2004-05-17, 00:01:01,VALID,918.273,VALID,0,VALID,92.5766,VALID,0,VALID,18.1729,VALID,103,VALID,0.877604,
2004-05-17, 00:02:01,VALID,918.264,VALID,0,VALID,93.0395,VALID,-0.0169808,VALID,18.1152,VALID,103,VALID,0.967416,
2004-05-17, 00:03:00,VALID,918.263,VALID,0,VALID,92.9696,VALID,0,VALID,18.0438,VALID,106,VALID,0.752887,
2004-05-17, 00:04:00,VALID,918.26,VALID,0,VALID,93.1463,VALID,-0.0509425,VALID,17.9605,VALID,112,VALID,0.762326,
2004-05-17, 00:05:00,VALID,918.27,VALID,0,VALID,93.0408,VALID,-0.0339617,VALID,17.854,VALID,78,VALID,0.700994,
2004-05-17, 00:06:00,VALID,918.267,VALID,0,VALID,93.4922,VALID,-0.0339617,VALID,17.7251,VALID,76,VALID,0.673295,
2004-05-17, 00:07:01,VALID,918.258,VALID,0,VALID,94.7651,VALID,-0.0339617,VALID,17.6573,VALID,96,VALID,1.01793,
2004-05-17, 00:08:01,VALID,918.246,VALID,0,VALID,94.8846,VALID,-0.0509425,VALID,17.6371,VALID,97,VALID,0.952217,
2004-05-17, 00:09:00,VALID,918.236,VALID,0,VALID,94.8096,VALID,-0.0509425,VALID,17.6479,VALID,108,VALID,0.975472,
2004-05-17, 00:10:00,VALID,918.225,VALID,0,VALID,94.8096,VALID,-0.0679233,VALID,17.6668,VALID,86,VALID,1.04199,
2004-05-17, 00:11:00,VALID,918.213,VALID,0,VALID,94.2081,VALID,-0.0679233,VALID,17.709,VALID,80,VALID,1.08711,
2004-05-17, 00:12:00,VALID,918.189,VALID,0,VALID,94.1661,VALID,-0.0509425,VALID,17.7311,VALID,70,VALID,1.1553,
2004-05-17, 00:13:00,VALID,918.165,VALID,0,VALID,93.5647,VALID,-0.0509425,VALID,17.7832,VALID,73,VALID,1.24037,
2004-05-17, 00:14:00,VALID,918.161,VALID,0,VALID,93.7732,VALID,-0.0509425,VALID,17.7862,VALID,72,VALID,1.11905,
2004-05-17, 00:15:00,VALID,918.138,VALID,0,VALID,93.6473,VALID,-0.0849042,VALID,17.8192,VALID,76,VALID,1.02415,
2004-05-17, 00:16:00,VALID,918.123,VALID,0,VALID,93.5087,VALID,-0.0169808,VALID,17.8222,VALID,89,VALID,0.891146,
2004-05-17, 00:17:00,VALID,918.104,VALID,0,VALID,92.0247,VALID,-0.0679233,VALID,17.754,VALID,80,VALID,0.650724,
2004-05-17, 00:18:00,VALID,918.066,VALID,0,VALID,92.9352,VALID,-0.0849042,VALID,17.635,VALID,84,VALID,0.979539,
2004-05-17, 00:19:01,VALID,918.04,VALID,0,VALID,93.9894,VALID,-0.0679233,VALID,17.6216,VALID,80,VALID,0.867746,
2004-05-17, 00:20:00,VALID,918.024,VALID,0,VALID,93.201,VALID,-0.0679233,VALID,17.5898,VALID,80,VALID,0.912157,
2004-05-17, 00:21:00,VALID,917.995,VALID,0,VALID,94.4332,VALID,-0.0849042,VALID,17.5379,VALID,91,VALID,1.27689,
2004-05-17, 00:22:01,VALID,917.988,VALID,0,VALID,94.1127,VALID,-0.0339617,VALID,17.6449,VALID,100,VALID,1.28311,
2004-05-17, 00:23:00,VALID,917.976,VALID,0,VALID,93.1132,VALID,-0.0849042,VALID,17.7542,VALID,105,VALID,1.29865,
2004-05-17, 00:24:01,VALID,917.976,VALID,0,VALID,92.2295,VALID,-0.0679233,VALID,17.7867,VALID,128,VALID,1.41388,
2004-05-17, 00:25:01,VALID,917.974,VALID,0,VALID,92.7814,VALID,-0.101885,VALID,17.6995,VALID,121,VALID,1.8627,
2004-05-17, 00:26:00,VALID,917.967,VALID,0,VALID,93.6778,VALID,-0.0679233,VALID,17.6774,VALID,116,VALID,1.97475,
2004-05-17, 00:27:00,VALID,917.938,VALID,0,VALID,93.557,VALID,-0.0849042,VALID,17.7191,VALID,117,VALID,1.76101,
2004-05-17, 00:28:00,VALID,917.901,VALID,0,VALID,93.5456,VALID,-0.101885,VALID,17.7611,VALID,120,VALID,1.91602,
2004-05-17, 00:29:00,VALID,917.885,VALID,0,VALID,93.4795,VALID,-0.0339617,VALID,17.7867,VALID,118,VALID,1.96312,
2004-05-17, 00:30:01,VALID,917.857,VALID,0,VALID,93.5125,VALID,-0.0169808,VALID,17.7936,VALID,121,VALID,2.08937,
2004-05-17, 00:31:01,VALID,917.859,VALID,0,VALID,93.7554,VALID,-0.0509425,VALID,17.7839,VALID,118,VALID,2.06995,
2004-05-17, 00:32:00,VALID,917.85,VALID,0,VALID,93.7045,VALID,-0.0849042,VALID,17.7867,VALID,120,VALID,1.82906,
2004-05-17, 00:33:01,VALID,917.843,VALID,0,VALID,93.5952,VALID,-0.0849042,VALID,17.7867,VALID,124,VALID,2.02273,
2004-05-17, 00:34:00,VALID,917.847,VALID,0,VALID,93.7847,VALID,0,VALID,17.7533,VALID,127,VALID,1.88586,
2004-05-17, 00:35:01,VALID,917.859,VALID,0,VALID,93.9258,VALID,0,VALID,17.7111,VALID,125,VALID,1.97028,
2004-05-17, 00:36:00,VALID,917.854,VALID,0,VALID,94.0377,VALID,0.0509425,VALID,17.6982,VALID,123,VALID,1.85305,
2004-05-17, 00:37:01,VALID,917.852,VALID,0,VALID,93.9309,VALID,0.0169808,VALID,17.7141,VALID,125,VALID,1.73323,
2004-05-17, 00:38:01,VALID,917.838,VALID,0,VALID,93.8444,VALID,0,VALID,17.7335,VALID,132,VALID,1.7429,
2004-05-17, 00:39:01,VALID,917.819,VALID,0,VALID,93.894,VALID,0.0339617,VALID,17.7337,VALID,125,VALID,1.70293,
2004-05-17, 00:40:01,VALID,917.812,VALID,0,VALID,93.8228,VALID,0.0339617,VALID,17.7178,VALID,123,VALID,1.46239,
2004-05-17, 00:41:01,VALID,917.802,VALID,0,VALID,93.641,VALID,0.0339617,VALID,17.6952,VALID,125,VALID,1.54324,
2004-05-17, 00:42:01,VALID,917.799,VALID,0,VALID,94.0046,VALID,0,VALID,17.6498,VALID,127,VALID,1.65545,
2004-05-17, 00:43:00,VALID,917.802,VALID,0,VALID,93.9868,VALID,0.0339617,VALID,17.6237,VALID,124,VALID,1.38709,
2004-05-17, 00:44:00,VALID,917.787,VALID,0,VALID,94.0809,VALID,0.0509425,VALID,17.621,VALID,122,VALID,1.38388,
2004-05-17, 00:45:01,VALID,917.777,VALID,0,VALID,94.2602,VALID,0.0339617,VALID,17.624,VALID,120,VALID,1.49028,
2004-05-17, 00:46:01,VALID,917.763,VALID,0,VALID,94.0008,VALID,0.0339617,VALID,17.653,VALID,116,VALID,1.24442,
2004-05-17, 00:47:01,VALID,917.745,VALID,0,VALID,93.763,VALID,0.0849042,VALID,17.689,VALID,123,VALID,1.10918,
2004-05-17, 00:48:01,VALID,917.721,VALID,0,VALID,93.5329,VALID,0.0169808,VALID,17.721,VALID,116,VALID,0.886624,
2004-05-17, 00:49:01,VALID,917.71,VALID,0,VALID,93.3523,VALID,-0.0509425,VALID,17.7249,VALID,121,VALID,0.967901,
2004-05-17, 00:50:01,VALID,917.706,VALID,0,VALID,93.1514,VALID,-0.0849042,VALID,17.7154,VALID,120,VALID,0.720117,
2004-05-17, 00:51:01,VALID,917.704,VALID,0,VALID,93.1463,VALID,-0.0849042,VALID,17.6703,VALID,134,VALID,0.785633,
2004-05-17, 00:52:01,VALID,917.71,VALID,0,VALID,93.3803,VALID,-0.0339617,VALID,17.6186,VALID,133,VALID,1.06722,
2004-05-17, 00:53:01,VALID,917.715,VALID,0,VALID,93.5354,VALID,0,VALID,17.5674,VALID,129,VALID,1.3234,
2004-05-17, 00:54:01,VALID,917.711,VALID,0,VALID,93.3905,VALID,-0.0339617,VALID,17.5638,VALID,108,VALID,1.24572,
2004-05-17, 00:55:01,VALID,917.705,VALID,0,VALID,92.9314,VALID,-0.0509425,VALID,17.6119,VALID,95,VALID,1.35342,
2004-05-17, 00:56:01,VALID,917.694,VALID,0,VALID,92.1341,VALID,-0.0169808,VALID,17.6604,VALID,97,VALID,1.29233,
2004-05-17, 00:57:01,VALID,917.681,VALID,0,VALID,91.9218,VALID,-0.0169808,VALID,17.6735,VALID,94,VALID,1.08937,
2004-05-17, 00:58:01,VALID,917.681,VALID,0,VALID,91.937,VALID,-0.0509425,VALID,17.6507,VALID,92,VALID,1.46895,
2004-05-17, 00:59:01,VALID,917.654,VALID,0,VALID,91.717,VALID,-0.0169808,VALID,17.6537,VALID,93,VALID,1.49181,
2004-05-17, 01:00:01,VALID,917.636,VALID,0,VALID,91.1257,VALID,-0.0849042,VALID,17.7226,VALID,82,VALID,1.25223,
2004-05-17, 01:01:01,VALID,917.621,VALID,0,VALID,90.6425,VALID,-0.0849042,VALID,17.7574,VALID,104,VALID,1.377,
2004-05-17, 01:02:01,VALID,917.604,VALID,0,VALID,90.2839,VALID,-0.0339617,VALID,17.7966,VALID,104,VALID,1.18532,
2004-05-17, 01:03:01,VALID,917.579,VALID,0,VALID,90.0169,VALID,-0.0849042,VALID,17.839,VALID,97,VALID,1.15589,
2004-05-17, 01:04:01,VALID,917.545,VALID,0,VALID,90.0105,VALID,0.0169808,VALID,17.8151,VALID,99,VALID,1.19677,
2004-05-17, 01:05:01,VALID,917.507,VALID,0,VALID,90.0118,VALID,0.0169808,VALID,17.7787,VALID,88,VALID,0.881359,
2004-05-17, 01:06:01,VALID,917.489,VALID,0,VALID,90.4861,VALID,0.0849042,VALID,17.7085,VALID,70,VALID,1.07691,
2004-05-17, 01:07:01,VALID,917.455,VALID,0,VALID,91.155,VALID,0.0509425,VALID,17.5852,VALID,60,VALID,1.2798,
2004-05-17, 01:08:01,VALID,917.442,VALID,0,VALID,91.7272,VALID,0.0679233,VALID,17.4656,VALID,76,VALID,1.24163,
2004-05-17, 01:09:01,VALID,917.425,VALID,0,VALID,91.8963,VALID,0.0509425,VALID,17.4693,VALID,88,VALID,1.46751,
2004-05-17, 01:10:01,VALID,917.406,VALID,0,VALID,90.9591,VALID,0.0169808,VALID,17.5822,VALID,98,VALID,1.42227,
2004-05-17, 01:11:01,VALID,917.383,VALID,0,VALID,90.0143,VALID,0.0679233,VALID,17.7107,VALID,98,VALID,1.22816,
2004-05-17, 01:12:01,VALID,917.38,VALID,0,VALID,89.6138,VALID,0.0509425,VALID,17.8012,VALID,101,VALID,1.00724,
2004-05-17, 01:13:01,VALID,917.373,VALID,0,VALID,88.8496,VALID,0.0679233,VALID,17.8531,VALID,106,VALID,1.04379,
2004-05-17, 01:14:00,VALID,917.366,VALID,0,VALID,88.7885,VALID,0.0679233,VALID,17.8759,VALID,120,VALID,0.787997,
2004-05-17, 01:15:00,VALID,917.381,VALID,0,VALID,89.5502,VALID,0.0679233,VALID,17.7793,VALID,115,VALID,0.731286,
2004-05-17, 01:16:00,VALID,917.375,VALID,0,VALID,90.0207,VALID,0.0339617,VALID,17.6599,VALID,110,VALID,0.579127,
2004-05-17, 01:17:00,VALID,917.369,VALID,0,VALID,90.5166,VALID,0.0679233,VALID,17.5435,VALID,95,VALID,0.93821,
2004-05-17, 01:18:00,VALID,917.367,VALID,0,VALID,90.9744,VALID,0.0509425,VALID,17.4822,VALID,101,VALID,0.792783,
2004-05-17, 01:19:00,VALID,917.357,VALID,0,VALID,91.0571,VALID,0.0169808,VALID,17.4605,VALID,100,VALID,0.923549,
2004-05-17, 01:20:00,VALID,917.349,VALID,0,VALID,90.7417,VALID,-0.0169808,VALID,17.4831,VALID,116,VALID,1.10007,
2004-05-17, 01:21:00,VALID,917.343,VALID,0,VALID,90.5955,VALID,-0.0169808,VALID,17.4771,VALID,128,VALID,1.23704,
2004-05-17, 01:22:00,VALID,917.319,VALID,0,VALID,90.8994,VALID,-0.0169808,VALID,17.3957,VALID,124,VALID,1.56484,
2004-05-17, 01:23:00,VALID,917.318,VALID,0,VALID,91.3444,VALID,0,VALID,17.3217,VALID,127,VALID,1.6712,
2004-05-17, 01:24:00,VALID,917.31,VALID,0,VALID,91.6039,VALID,-0.0339617,VALID,17.3026,VALID,130,VALID,1.63802,
2004-05-17, 01:25:00,VALID,917.313,VALID,0,VALID,91.6979,VALID,0,VALID,17.3316,VALID,132,VALID,1.66082,
2004-05-17, 01:26:00,VALID,917.296,VALID,0,VALID,91.511,VALID,-0.0509425,VALID,17.4063,VALID,127,VALID,1.85884,
2004-05-17, 01:27:00,VALID,917.284,VALID,0,VALID,91.3915,VALID,-0.0679233,VALID,17.4706,VALID,125,VALID,2.04722,
2004-05-17, 01:28:00,VALID,917.284,VALID,0,VALID,90.7023,VALID,-0.0849042,VALID,17.5644,VALID,125,VALID,1.4117,
2004-05-17, 01:29:00,VALID,917.278,VALID,0,VALID,90.1949,VALID,-0.0849042,VALID,17.587,VALID,130,VALID,0.875558,
2004-05-17, 01:30:00,VALID,917.26,VALID,0,VALID,90.2687,VALID,-0.0679233,VALID,17.519,VALID,127,VALID,0.622768,
2004-05-17, 01:31:00,VALID,917.25,VALID,0,VALID,89.3633,VALID,-0.0509425,VALID,17.3901,VALID,123,VALID,0.382813,
2004-05-17, 01:32:00,VALID,917.23,VALID,0,VALID,90.2394,VALID,-0.0339617,VALID,17.1416,VALID,71,VALID,0.778764,
2004-05-17, 01:33:00,VALID,917.23,VALID,0,VALID,91.8378,VALID,-0.0169808,VALID,16.9351,VALID,55,VALID,0.911632,
2004-05-17, 01:34:00,VALID,917.208,VALID,0,VALID,93.0827,VALID,-0.0509425,VALID,16.8252,VALID,56,VALID,0.825639,
2004-05-17, 01:35:00,VALID,917.181,VALID,0,VALID,94.264,VALID,-0.0509425,VALID,16.7863,VALID,71,VALID,0.829654,
2004-05-17, 01:36:00,VALID,917.159,VALID,0,VALID,94.1483,VALID,-0.0169808,VALID,16.8613,VALID,95,VALID,0.919457,
2004-05-17, 01:37:00,VALID,917.138,VALID,0,VALID,93.1031,VALID,-0.0339617,VALID,16.9738,VALID,94,VALID,1.09996,
2004-05-17, 01:38:00,VALID,917.134,VALID,0,VALID,92.3821,VALID,-0.0339617,VALID,17.1064,VALID,97,VALID,1.04258,
2004-05-17, 01:39:00,VALID,917.112,VALID,0,VALID,91.1944,VALID,-0.0339617,VALID,17.2098,VALID,86,VALID,0.949128,
2004-05-17, 01:40:00,VALID,917.1,VALID,0,VALID,90.7442,VALID,-0.0679233,VALID,17.1356,VALID,85,VALID,1.07383,
2004-05-17, 01:41:00,VALID,917.092,VALID,0,VALID,91.5504,VALID,-0.0679233,VALID,17.1096,VALID,99,VALID,1.30418,
2004-05-17, 01:42:00,VALID,917.101,VALID,0,VALID,90.9757,VALID,0,VALID,17.2159,VALID,111,VALID,1.30788,
2004-05-17, 01:43:00,VALID,917.116,VALID,0,VALID,89.9202,VALID,-0.0679233,VALID,17.2996,VALID,107,VALID,1.32031,
2004-05-17, 01:44:00,VALID,917.113,VALID,0,VALID,89.3086,VALID,-0.0169808,VALID,17.3673,VALID,64,VALID,0.832292,
2004-05-17, 01:45:00,VALID,917.107,VALID,0,VALID,89.9724,VALID,-0.0509425,VALID,17.3196,VALID,81,VALID,0.978277,
2004-05-17, 01:46:00,VALID,917.066,VALID,0,VALID,89.699,VALID,-0.101885,VALID,17.3323,VALID,93,VALID,0.956445,
2004-05-17, 01:47:00,VALID,917.049,VALID,0,VALID,89.8439,VALID,-0.0169808,VALID,17.3805,VALID,89,VALID,0.770139,
2004-05-17, 01:48:00,VALID,917.03,VALID,0,VALID,89.2501,VALID,-0.0169808,VALID,17.2993,VALID,50,VALID,0.833629,
2004-05-17, 01:49:00,VALID,917.004,VALID,0,VALID,89.6316,VALID,-0.0849042,VALID,17.061,VALID,54,VALID,0.962891,
2004-05-17, 01:50:00,VALID,916.982,VALID,0,VALID,91.6979,VALID,-0.101885,VALID,16.8553,VALID,60,VALID,0.93099,
2004-05-17, 01:51:00,VALID,916.967,VALID,0,VALID,92.4278,VALID,-0.101885,VALID,16.7488,VALID,80,VALID,1.07069,
2004-05-17, 01:52:00,VALID,916.957,VALID,0,VALID,91.3152,VALID,-0.101885,VALID,16.8196,VALID,98,VALID,1.15234,
2004-05-17, 01:53:00,VALID,916.969,VALID,0,VALID,91.0901,VALID,-0.101885,VALID,16.9422,VALID,84,VALID,0.644804,
2004-05-17, 01:54:00,VALID,916.967,VALID,0,VALID,90.7684,VALID,-0.101885,VALID,16.9487,VALID,84,VALID,1.18203,
2004-05-17, 01:55:00,VALID,916.963,VALID,0,VALID,89.9978,VALID,-0.0849042,VALID,16.968,VALID,88,VALID,0.989644,
2004-05-17, 01:56:00,VALID,916.97,VALID,0,VALID,90.036,VALID,-0.118866,VALID,17.0265,VALID,94,VALID,0.585747,
2004-05-17, 01:57:00,VALID,916.953,VALID,0,VALID,90.4581,VALID,-0.101885,VALID,16.9977,VALID,98,VALID,0.629297,
2004-05-17, 01:58:00,VALID,916.943,VALID,0,VALID,91.2707,VALID,-0.101885,VALID,16.8843,VALID,106,VALID,1.1081,
2004-05-17, 01:59:00,VALID,916.924,VALID,0,VALID,91.792,VALID,-0.101885,VALID,16.8034,VALID,107,VALID,1.08594,
2004-05-17, 02:00:00,VALID,916.905,VALID,0,VALID,92.0247,VALID,-0.0849042,VALID,16.7393,VALID,116,VALID,1.27176,
2004-05-17, 02:01:00,VALID,916.888,VALID,0,VALID,92.1506,VALID,-0.0849042,VALID,16.6812,VALID,124,VALID,1.71484,
2004-05-17, 02:02:00,VALID,916.863,VALID,0,VALID,92.3503,VALID,-0.118866,VALID,16.7264,VALID,119,VALID,1.95879,
2004-05-17, 02:03:00,VALID,916.871,VALID,0,VALID,91.4322,VALID,-0.0679233,VALID,16.8521,VALID,91,VALID,1.18314,
2004-05-17, 02:04:00,VALID,916.896,VALID,0,VALID,91.4538,VALID,-0.101885,VALID,16.8682,VALID,96,VALID,0.927083,
2004-05-17, 02:05:00,VALID,916.879,VALID,0,VALID,92.0438,VALID,-0.0679233,VALID,16.865,VALID,117,VALID,1.40031,
2004-05-17, 02:06:00,VALID,916.881,VALID,0,VALID,91.525,VALID,-0.101885,VALID,16.9329,VALID,114,VALID,1.74055,
2004-05-17, 02:07:00,VALID,916.882,VALID,0,VALID,90.261,VALID,-0.0849042,VALID,17.0295,VALID,100,VALID,1.16389,
2004-05-17, 02:08:00,VALID,916.883,VALID,0,VALID,90.4429,VALID,-0.101885,VALID,17.0453,VALID,76,VALID,1.01328,
2004-05-17, 02:09:00,VALID,916.871,VALID,0,VALID,91.0901,VALID,-0.101885,VALID,16.9876,VALID,99,VALID,1.5307,
2004-05-17, 02:10:00,VALID,916.891,VALID,0,VALID,90.3895,VALID,-0.101885,VALID,17.0911,VALID,114,VALID,1.19754,
2004-05-17, 02:11:00,VALID,916.901,VALID,0,VALID,89.9177,VALID,-0.101885,VALID,17.1425,VALID,119,VALID,1.1339,
2004-05-17, 02:12:00,VALID,916.872,VALID,0,VALID,89.9126,VALID,-0.101885,VALID,17.1234,VALID,126,VALID,1.2311,
2004-05-17, 02:13:00,VALID,916.876,VALID,0,VALID,89.9648,VALID,-0.0849042,VALID,17.0455,VALID,125,VALID,1.53616,
2004-05-17, 02:14:00,VALID,916.847,VALID,0,VALID,90.1847,VALID,-0.0849042,VALID,16.9689,VALID,124,VALID,2.05251,
2004-05-17, 02:15:00,VALID,916.825,VALID,0,VALID,90.1962,VALID,-0.0849042,VALID,16.9553,VALID,114,VALID,2.17076,
2004-05-17, 02:16:00,VALID,916.814,VALID,0,VALID,89.5744,VALID,-0.0849042,VALID,17.033,VALID,83,VALID,1.29161,
2004-05-17, 02:17:00,VALID,916.81,VALID,0,VALID,89.3874,VALID,-0.101885,VALID,17.0683,VALID,81,VALID,1.18413,
2004-05-17, 02:18:00,VALID,916.817,VALID,0,VALID,89.3989,VALID,-0.0679233,VALID,17.1203,VALID,87,VALID,0.763281,
2004-05-17, 02:19:00,VALID,916.802,VALID,0,VALID,89.4739,VALID,-0.0679233,VALID,17.1201,VALID,114,VALID,0.893056,
2004-05-17, 02:20:00,VALID,916.779,VALID,0,VALID,89.4739,VALID,-0.101885,VALID,17.0293,VALID,123,VALID,1.59575,
2004-05-17, 02:21:00,VALID,916.758,VALID,0,VALID,89.0021,VALID,-0.0679233,VALID,16.9906,VALID,97,VALID,1.01829,
2004-05-17, 02:22:00,VALID,916.742,VALID,0,VALID,89.9037,VALID,-0.0679233,VALID,16.9426,VALID,69,VALID,0.760719,
2004-05-17, 02:23:00,VALID,916.73,VALID,0,VALID,91.0812,VALID,-0.118866,VALID,16.8237,VALID,82,VALID,0.787157,
2004-05-17, 02:24:00,VALID,916.719,VALID,0,VALID,91.0558,VALID,-0.0849042,VALID,16.7004,VALID,117,VALID,1.07667,
2004-05-17, 02:25:00,VALID,916.704,VALID,0,VALID,91.0621,VALID,-0.0849042,VALID,16.6617,VALID,107,VALID,0.469308,
2004-05-17, 02:26:00,VALID,916.699,VALID,0,VALID,91.216,VALID,-0.0849042,VALID,16.6393,VALID,135,VALID,0.668423,
2004-05-17, 02:27:00,VALID,916.677,VALID,0,VALID,91.1067,VALID,-0.101885,VALID,16.5903,VALID,128,VALID,1.36979,
2004-05-17, 02:28:00,VALID,916.671,VALID,0,VALID,89.3989,VALID,-0.101885,VALID,16.649,VALID,92,VALID,1.5747,
2004-05-17, 02:29:00,VALID,916.651,VALID,0,VALID,88.1972,VALID,-0.0849042,VALID,16.7907,VALID,73,VALID,0.870722,
2004-05-17, 02:30:00,VALID,916.634,VALID,0,VALID,88.8114,VALID,-0.101885,VALID,16.8262,VALID,106,VALID,0.769259,
2004-05-17, 02:31:00,VALID,916.632,VALID,0,VALID,89.891,VALID,-0.101885,VALID,16.7589,VALID,106,VALID,0.573171,
2004-05-17, 02:32:00,VALID,916.635,VALID,0,VALID,91.2058,VALID,-0.0849042,VALID,16.6169,VALID,105,VALID,0.33718,
2004-05-17, 02:33:00,VALID,916.609,VALID,0,VALID,91.2707,VALID,-0.101885,VALID,16.4423,VALID,81,VALID,0.852951,
2004-05-17, 02:34:00,VALID,916.602,VALID,0,VALID,91.1626,VALID,-0.0169808,VALID,16.3582,VALID,97,VALID,0.747266,
2004-05-17, 02:35:00,VALID,916.594,VALID,0,VALID,91.7208,VALID,0,VALID,16.3281,VALID,103,VALID,0.54742,
2004-05-17, 02:36:00,VALID,916.592,VALID,0,VALID,91.8811,VALID,0,VALID,16.2864,VALID,103,VALID,0.289993,
2004-05-17, 02:37:00,VALID,916.604,VALID,0,VALID,91.8455,VALID,-0.0169808,VALID,16.2192,VALID,103,VALID,0,
2004-05-17, 02:38:00,VALID,916.611,VALID,0,VALID,92.0044,VALID,-0.101885,VALID,16.1136,VALID,103,VALID,0,
2004-05-17, 02:39:00,VALID,916.598,VALID,0,VALID,91.6903,VALID,-0.0849042,VALID,16.146,VALID,101,VALID,0.125572,
2004-05-17, 02:40:00,VALID,916.566,VALID,0,VALID,91.7781,VALID,-0.101885,VALID,16.1523,VALID,61,VALID,1.08418,
2004-05-17, 02:41:00,VALID,916.559,VALID,0,VALID,91.8861,VALID,-0.101885,VALID,16.1366,VALID,52,VALID,1.30171,
2004-05-17, 02:42:00,VALID,916.561,VALID,0,VALID,91.8086,VALID,-0.118866,VALID,16.0714,VALID,50,VALID,0.988991,
2004-05-17, 02:43:00,VALID,916.57,VALID,0,VALID,91.7107,VALID,-0.101885,VALID,15.9587,VALID,51,VALID,0.764757,
2004-05-17, 02:44:00,VALID,916.556,VALID,0,VALID,92.1786,VALID,-0.101885,VALID,15.8524,VALID,52,VALID,0.487351,
2004-05-17, 02:45:00,VALID,916.563,VALID,0,VALID,92.2587,VALID,-0.0849042,VALID,15.7462,VALID,52,VALID,0.449219,
2004-05-17, 02:46:00,VALID,916.566,VALID,0,VALID,92.7992,VALID,-0.101885,VALID,15.6236,VALID,52,VALID,0.370722,
2004-05-17, 02:47:00,VALID,916.551,VALID,0,VALID,93.7592,VALID,-0.101885,VALID,15.5234,VALID,52,VALID,0.412464,
2004-05-17, 02:48:00,VALID,916.574,VALID,0,VALID,94.4713,VALID,-0.0849042,VALID,15.5075,VALID,59,VALID,0.575462,
2004-05-17, 02:49:00,VALID,916.582,VALID,0,VALID,94.4077,VALID,-0.101885,VALID,15.5002,VALID,60,VALID,0.873728,
2004-05-17, 02:50:00,VALID,916.578,VALID,0,VALID,93.2506,VALID,-0.118866,VALID,15.6296,VALID,62,VALID,1.25093,
2004-05-17, 02:51:00,VALID,916.563,VALID,0,VALID,89.8452,VALID,-0.101885,VALID,15.991,VALID,66,VALID,1.51042,
2004-05-17, 02:52:00,VALID,916.571,VALID,0,VALID,85.8893,VALID,-0.0849042,VALID,16.5362,VALID,78,VALID,1.55254,
2004-05-17, 02:53:00,VALID,916.557,VALID,0,VALID,83.8204,VALID,-0.0679233,VALID,17.0304,VALID,71,VALID,1.60465,
2004-05-17, 02:54:00,VALID,916.574,VALID,0,VALID,83.2608,VALID,-0.0849042,VALID,17.3562,VALID,69,VALID,1.51598,
2004-05-17, 02:55:00,VALID,916.574,VALID,0,VALID,83.7415,VALID,-0.0679233,VALID,17.3562,VALID,63,VALID,1.25885,
2004-05-17, 02:56:00,VALID,916.572,VALID,0,VALID,85.2115,VALID,-0.101885,VALID,17.0917,VALID,62,VALID,1.4838,
2004-05-17, 02:57:00,VALID,916.587,VALID,0,VALID,86.3013,VALID,-0.101885,VALID,16.8529,VALID,61,VALID,1.44062,
2004-05-17, 02:58:00,VALID,916.561,VALID,0,VALID,86.0698,VALID,-0.101885,VALID,16.8527,VALID,67,VALID,1.58539,
2004-05-17, 02:59:00,VALID,916.54,VALID,0,VALID,86.1614,VALID,-0.101885,VALID,16.9174,VALID,68,VALID,1.67151,
2004-05-17, 03:00:00,VALID,916.523,VALID,0,VALID,86.5352,VALID,-0.101885,VALID,16.8176,VALID,73,VALID,1.69141,
2004-05-17, 03:01:00,VALID,916.505,VALID,0,VALID,86.417,VALID,-0.101885,VALID,16.7787,VALID,64,VALID,1.34757,
2004-05-17, 03:02:00,VALID,916.518,VALID,0,VALID,86.9828,VALID,-0.0849042,VALID,16.6302,VALID,50,VALID,0.568109,
2004-05-17, 03:03:00,VALID,916.526,VALID,0,VALID,88.2417,VALID,-0.101885,VALID,16.4239,VALID,57,VALID,0.220655,
2004-05-17, 03:04:00,VALID,916.527,VALID,0,VALID,88.9157,VALID,-0.0169808,VALID,16.3168,VALID,80,VALID,0.405297,
2004-05-17, 03:05:00,VALID,916.523,VALID,0,VALID,89.1357,VALID,0,VALID,16.2222,VALID,151,VALID,0.746271,
2004-05-17, 03:06:00,VALID,916.511,VALID,0,VALID,89.7295,VALID,0.0169808,VALID,16.1123,VALID,151,VALID,1.05938,
2004-05-17, 03:07:00,VALID,916.5,VALID,0,VALID,90.42,VALID,0,VALID,15.9962,VALID,139,VALID,1.19922,
2004-05-17, 03:08:00,VALID,916.504,VALID,0,VALID,90.7964,VALID,0.0339617,VALID,15.9027,VALID,132,VALID,1.3099,
2004-05-17, 03:09:00,VALID,916.505,VALID,0,VALID,91.1156,VALID,0,VALID,15.8643,VALID,128,VALID,1.17857,
2004-05-17, 03:10:00,VALID,916.496,VALID,0,VALID,90.5827,VALID,0,VALID,15.9162,VALID,118,VALID,0.930831,
2004-05-17, 03:11:00,VALID,916.495,VALID,0,VALID,90.1771,VALID,0.0339617,VALID,15.9317,VALID,109,VALID,1.01406,
2004-05-17, 03:12:00,VALID,916.491,VALID,0,VALID,90.8434,VALID,0,VALID,15.8545,VALID,91,VALID,0.884375,
2004-05-17, 03:13:00,VALID,916.489,VALID,0,VALID,91.3622,VALID,0.0169808,VALID,15.6998,VALID,74,VALID,1.0665,
2004-05-17, 03:14:00,VALID,916.471,VALID,0,VALID,91.4627,VALID,0.0169808,VALID,15.7192,VALID,83,VALID,1.21466,
2004-05-17, 03:15:00,VALID,916.466,VALID,0,VALID,90.673,VALID,0.0509425,VALID,15.7381,VALID,76,VALID,0.979048,
2004-05-17, 03:16:00,VALID,916.459,VALID,0,VALID,91.3483,VALID,0.0169808,VALID,15.6611,VALID,82,VALID,1.18429,
2004-05-17, 03:17:00,VALID,916.46,VALID,0,VALID,90.2687,VALID,0,VALID,15.6293,VALID,75,VALID,0.482701,
2004-05-17, 03:18:00,VALID,916.461,VALID,0,VALID,91.8137,VALID,0,VALID,15.4934,VALID,75,VALID,0.445313,
2004-05-17, 03:19:00,VALID,916.457,VALID,0,VALID,93.3218,VALID,0.0169808,VALID,15.445,VALID,75,VALID,0.460574,
2004-05-17, 03:20:00,VALID,916.429,VALID,0,VALID,93.8152,VALID,0,VALID,15.416,VALID,78,VALID,0.518555,
2004-05-17, 03:21:00,VALID,916.419,VALID,0,VALID,94.1954,VALID,0,VALID,15.4031,VALID,126,VALID,1.18441,
2004-05-17, 03:22:00,VALID,916.397,VALID,0,VALID,93.9792,VALID,0,VALID,15.4031,VALID,119,VALID,1.5992,
2004-05-17, 03:23:00,VALID,916.387,VALID,0,VALID,92.864,VALID,0.0339617,VALID,15.4773,VALID,118,VALID,1.49836,
2004-05-17, 03:24:00,VALID,916.392,VALID,0,VALID,91.1308,VALID,0,VALID,15.6032,VALID,113,VALID,1.55412,
2004-05-17, 03:25:00,VALID,916.378,VALID,0,VALID,89.8796,VALID,0.0509425,VALID,15.8033,VALID,117,VALID,1.36381,
2004-05-17, 03:26:00,VALID,916.367,VALID,0,VALID,88.3752,VALID,0,VALID,15.9843,VALID,117,VALID,1.59508,
2004-05-17, 03:27:00,VALID,916.371,VALID,0,VALID,87.7916,VALID,0,VALID,16.0676,VALID,94,VALID,0.84811,
2004-05-17, 03:28:00,VALID,916.377,VALID,0,VALID,87.475,VALID,0,VALID,16.0708,VALID,130,VALID,0.807478,
2004-05-17, 03:29:00,VALID,916.369,VALID,0,VALID,87.4915,VALID,0,VALID,16.1065,VALID,114,VALID,0.627287,
2004-05-17, 03:30:00,VALID,916.367,VALID,0,VALID,87.9467,VALID,0.0169808,VALID,16.0615,VALID,140,VALID,0.907965,
2004-05-17, 03:31:00,VALID,916.366,VALID,0,VALID,87.995,VALID,0.0169808,VALID,15.9966,VALID,148,VALID,1.21911,
2004-05-17, 03:32:00,VALID,916.373,VALID,0,VALID,88.0357,VALID,0.0169808,VALID,15.971,VALID,139,VALID,1.26791,